STARLINK-32499

Last updated on Thu Nov 21 2024 00:02:06 GMT+0000 (Coordinated Universal Time)

1 61959U 24210A 24325.66668981 -.00856418 22721-3 -25202-2 0 9999 2 61959 43.0035 353.5382 0001782 282.2926 59.2813 15.91720270 2199
UTC large
Height (km)
Speed (km/s)
/
Latitude / Longitude
Inclination (degrees)
Orbital Period (minutes)
Azimuth
Elevation
Range (km)
Doppler Factor

Next 0 passes for location: London (51.5072 / 0.1276)

Sorry there are no passes over London.